Satellite: NO-44
Catalog number: 26931
Epoch time:      11327.89162048
Element set:    0905
Inclination:      067.0532 deg
RA of node:       291.9990 deg
Eccentricity:    0.0004881
Arg of perigee:   267.6412 deg
Mean anomaly:     092.4124 deg
Mean motion:   14.29723129 rev/day
Decay rate:       3.82e-06 rev/day^2
Epoch rev:           52975
Checksum:              319

Satellite: SO-50
Catalog number: 27607
Epoch time:      11328.82555566
Element set:     622
Inclination:      064.5585 deg
RA of node:       199.4601 deg
Eccentricity:    0.0083303
Arg of perigee:   288.3376 deg
Mean anomaly:     070.8657 deg
Mean motion:   14.72034307 rev/day
Decay rate:      1.571e-05 rev/day^2
Epoch rev:           47973
Checksum:              328

Satellite: CO-55
Catalog number: 27844
Epoch time:      11328.59429366
Element set:     250
Inclination:      098.7057 deg
RA of node:       334.9729 deg
Eccentricity:    0.0010458
Arg of perigee:   094.7670 deg
Mean anomaly:     265.4692 deg
Mean motion:   14.20904650 rev/day
Decay rate:       5.41e-06 rev/day^2
Epoch rev:           43569
Checksum:              337

Satellite: CO-57
Catalog number: 27848
Epoch time:      11327.50660262
Element set:    0196
Inclination:      098.7144 deg
RA of node:       333.1488 deg
Eccentricity:    0.0010582
Arg of perigee:   101.6761 deg
Mean anomaly:     258.5595 deg
Mean motion:   14.20671092 rev/day
Decay rate:       4.54e-06 rev/day^2
Epoch rev:           43548
Checksum:              317

Satellite: AO-51
Catalog number: 28375
Epoch time:      11328.46418059
Element set:     127
Inclination:      098.1178 deg
RA of node:       298.6607 deg
Eccentricity:    0.0083569
Arg of perigee:   305.0613 deg
Mean anomaly:     054.2784 deg
Mean motion:   14.40848059 rev/day
Decay rate:       7.13e-06 rev/day^2
Epoch rev:           38914
Checksum:              333

Satellite: CP3
Catalog number: 31129
Epoch time:      11327.96134047
Element set:    0027
Inclination:      097.8922 deg
RA of node:       342.8785 deg
Eccentricity:    0.0102570
Arg of perigee:   044.9079 deg
Mean anomaly:     316.0381 deg
Mean motion:   14.52717435 rev/day
Decay rate:      1.665e-05 rev/day^2
Epoch rev:           24403
Checksum:              298

Satellite: CO-65
Catalog number: 32785
Epoch time:      11328.75457583
Element set:     158
Inclination:      097.8312 deg
RA of node:       029.4277 deg
Eccentricity:    0.0015229
Arg of perigee:   017.0698 deg
Mean anomaly:     343.1009 deg
Mean motion:   14.82423035 rev/day
Decay rate:      2.972e-05 rev/day^2
Epoch rev:           19332
Checksum:              319

Satellite: PRISM
Catalog number: 33493
Epoch time:      11328.85252407
Element set:     177
Inclination:      098.1436 deg
RA of node:       100.0756 deg
Eccentricity:    0.0018891
Arg of perigee:   240.6425 deg
Mean anomaly:     119.2877 deg
Mean motion:   14.82601935 rev/day
Decay rate:      6.349e-05 rev/day^2
Epoch rev:           15331
Checksum:              302

Satellite: SOHLA-1
Catalog number: 33496
Epoch time:      11328.86317672
Element set:     578
Inclination:      098.0930 deg
RA of node:       077.1914 deg
Eccentricity:    0.0006471
Arg of perigee:   341.6432 deg
Mean anomaly:     018.4536 deg
Mean motion:   14.69771526 rev/day
Decay rate:       8.82e-06 rev/day^2
Epoch rev:           15208
Checksum:              319

Satellite: TISAT-1
Catalog number: 36799
Epoch time:      11328.69323330
Element set:     447
Inclination:      098.0857 deg
RA of node:       038.4260 deg
Eccentricity:    0.0016162
Arg of perigee:   117.0097 deg
Mean anomaly:     243.2765 deg
Mean motion:   14.81147772 rev/day
Decay rate:      3.991e-05 rev/day^2
Epoch rev:            7406
Checksum:              314

Satellite: STUDSAT
Catalog number: 36801
Epoch time:      11328.86469272
Element set:     288
Inclination:      098.0911 deg
RA of node:       038.6285 deg
Eccentricity:    0.0013963
Arg of perigee:   105.2511 deg
Mean anomaly:     255.0244 deg
Mean motion:   14.82146808 rev/day
Decay rate:     1.0632e-04 rev/day^2
Epoch rev:            7408
Checksum:              294

Satellite: OOREOS
Catalog number: 37224
Epoch time:      11283.12196780
Element set:    0302
Inclination:      071.9656 deg
RA of node:       145.3580 deg
Eccentricity:    0.0018647
Arg of perigee:   057.9354 deg
Mean anomaly:     302.3616 deg
Mean motion:   14.77183931 rev/day
Decay rate:       9.55e-06 rev/day^2
Epoch rev:           04784
Checksum:              307

Satellite: FO-69
Catalog number: 37227
Epoch time:      11327.52777932
Element set:    0034
Inclination:      071.9707 deg
RA of node:       047.8933 deg
Eccentricity:    0.0017693
Arg of perigee:   339.6360 deg
Mean anomaly:     020.4071 deg
Mean motion:   14.76794195 rev/day
Decay rate:      1.236e-05 rev/day^2
Epoch rev:           00558
Checksum:              326

Satellite: NANOSALD
Catalog number: 37361
Epoch time:      11242.25215765
Element set:    0351
Inclination:      071.9735 deg
RA of node:       221.4469 deg
Eccentricity:    0.0025730
Arg of perigee:   245.3422 deg
Mean anomaly:     114.7284 deg
Mean motion:   15.22200108 rev/day
Decay rate:    1.80112e-03 rev/day^2
Epoch rev:           03331
Checksum:              248

